Wind_Speed
25 19 13 14 18 13 9 13 10 8 9 12 12 11 8 7 8 11 11 11 13 13 14 14 14 17 19 22 23 22 21 27 30 36 38 39 42 45 50 47 44 42 40 40
20 20 18 15 12 8 7 15 11 10 12 13 12 10 7 9 10 10 10 13 15 14 12 13 16 18 19 20 19 21 25 30 35 39 41 43 45 48 46 47 46 44 45 48
11 10 17 18 12 7 8 16 10 4 5 7 11 10 11 9 9 8 9 10 12 13 13 13 16 18 19 23 23 26 30 34 35 40 40 42 45 45 46 48 48 48 50 52
17 9 10 10 11 13 11 19 15 10 9 6 8 10 12 11 9 10 13 14 14 15 14 15 18 19 21 23 24 27 30 30 32 34 34 36 40 44 48 50 51 54 54 55
14 9 7 12 17 14 15 13 17 13 15 15 13 15 19 15 12 13 16 17 17 15 15 17 19 21 20 18 18 19 22 25 29 31 35 39 42 45 48 51 54 56 57 58
20 16 14 18 17 15 17 12 15 17 19 20 22 20 18 15 15 18 19 18 16 15 17 17 17 14 13 15 18 20 23 27 31 35 39 43 45 49 52 54 57 58 58 59
23 23 20 15 11 14 14 13 15 17 18 18 17 21 17 16 17 20 19 17 15 15 14 13 12 13 15 18 21 24 27 31 36 40 43 46 49 52 52 54 57 58 59 60
20 19 17 12 14 17 20 16 18 19 17 16 16 17 15 15 17 17 16 13 11 10 10 13 15 16 19 23 25 27 30 34 37 41 44 47 50 52 53 56 58 61 62 62
17 18 17 15 16 17 17 18 17 19 18 17 13 10 13 13 13 11 8 8 9 11 13 15 17 21 24 27 29 31 34 37 40 43 46 48 54 54 57 58 62 63 62 62
15 17 17 18 19 20 20 18 18 16 13 11 5 5 6 6 6 8 10 11 13 15 17 19 22 25 28 31 33 34 38 41 43 46 49 53 56 58 58 61 63 61 62 64
16 18 18 20 19 18 18 15 13 13 10 7 6 7 9 11 12 12 14 16 18 20 21 24 27 30 32 35 37 38 41 45 48 51 53 56 59 59 60 62 62 62 64 68
18 19 18 19 19 17 15 14 13 13 11 10 11 10 13 13 15 17 19 20 23 25 27 30 33 36 39 41 42 43 46 48 52 55 57 59 60 60 61 62 62 65 68 72
20 21 20 20 17 15 15 14 14 15 14 12 13 13 16 17 19 21 23 25 28 30 33 36 39 42 45 47 48 50 51 53 55 57 59 61 61 61 63 63 65 68 72 77
18 16 16 16 18 18 18 18 18 17 16 16 13 20 22 24 24 26 29 31 33 35 38 41 44 47 50 51 52 54 55 55 57 59 61 62 62 63 64 64 67 72 76 80
17 15 16 17 19 21 20 21 21 21 21 22 21 23 26 32 31 33 35 38 39 42 43 45 48 50 53 54 55 56 57 58 59 60 62 63 62 63 63 66 71 76 79 84
17 16 17 18 19 22 23 23 22 24 25 27 30 28 34 36 38 38 40 42 44 46 47 49 51 53 55 56 57 58 57 58 59 61 62 62 61 62 65 68 74 79 83 87
18 17 18 19 21 24 26 21 25 28 29 32 36 37 39 42 44 46 47 48 49 50 51 51 53 55 57 58 58 56 57 58 60 62 61 60 61 65 67 72 78 80 87 88
15 17 20 20 23 28 23 25 28 32 33 37 41 44 46 49 50 50 51 52 51 52 52 52 54 56 57 56 54 56 58 59 61 60 58 60 64 67 72 76 78 84 87 92
15 18 21 24 25 26 28 29 31 34 37 40 44 47 49 51 52 51 53 52 53 53 53 54 54 54 53 54 55 56 61 60 61 59 60 63 66 68 72 75 80 86 90 90
14 18 20 22 25 26 25 28 30 33 37 38 41 45 47 49 50 52 53 53 53 52 53 53 51 51 52 54 56 56 57 60 60 61 63 67 68 70 75 78 83 88 90 81
14 17 19 22 25 27 29 30 32 36 40 42 44 46 48 49 51 51 51 50 49 48 47 47 49 52 55 56 58 54 58 61 61 63 67 70 70 74 78 83 86 86 83 75
19 21 23 26 29 33 34 38 40 42 44 45 47 48 48 48 47 47 46 46 44 43 46 49 54 56 55 56 54 59 63 64 64 67 71 72 72 75 82 85 84 82 76 68
26 28 30 31 33 38 42 44 45 45 44 44 44 45 45 45 45 44 43 43 44 49 52 55 55 55 56 57 58 58 65 63 65 70 73 73 73 78 85 84 83 77 67 61
31 34 35 37 38 43 46 45 43 42 42 42 42 43 44 43 42 43 46 49 52 54 57 55 54 56 60 62 59 58 63 69 70 72 73 75 76 82 83 85 78 68 60 54
35 37 40 42 43 44 40 39 40 40 41 41 42 43 43 44 45 48 50 52 54 55 53 54 56 59 59 59 66 67 75 73 73 71 73 75 73 76 79 77 69 60 55 49
38 42 43 41 39 38 37 38 40 41 42 42 43 44 44 46 48 50 50 50 50 52 54 57 59 58 61 66 68 70 72 69 68 70 72 72 72 74 71 67 60 54 51 44
Wind_Direction
168 162 164 156 178 168 186 209 208 192 188 182 173 197 214 209 232 247 240 237 262 257 255 258 262 269 275 279 281 285 291 297 301 310 307 302 305 308 310 312 307 306 304 300
172 161 167 174 161 186 212 189 185 186 179 173 178 187 205 230 238 239 240 247 255 263 270 271 278 278 276 273 276 278 292 301 305 305 301 302 307 305 301 302 305 305 304 306
161 180 181 157 179 191 217 188 196 225 240 223 213 214 214 210 218 230 232 249 261 271 276 277 269 280 284 283 281 280 289 295 296 307 310 301 298 303 308 309 307 306 305 304
165 186 203 220 213 215 231 213 208 214 239 212 214 227 216 207 220 251 259 267 272 270 271 266 274 284 283 286 282 285 294 304 306 306 303 305 307 311 310 308 305 303 301 299
208 195 217 241 248 244 238 241 231 236 238 242 244 234 241 232 247 265 259 264 267 268 271 275 280 288 294 297 300 300 302 304 303 309 318 314 313 311 310 308 306 304 303 302
216 228 258 266 256 233 242 232 233 251 258 252 249 253 250 242 262 260 261 261 259 263 270 277 285 296 300 302 303 306 309 310 314 317 313 311 310 308 308 307 307 307 306 306
231 238 249 244 243 226 218 246 262 256 246 250 250 254 252 260 262 255 251 251 252 259 268 279 288 294 300 304 311 313 315 313 313 311 309 308 306 304 304 307 308 309 309 309
235 239 223 212 227 234 242 249 251 255 258 264 260 259 263 258 252 248 247 245 244 256 271 276 283 296 307 310 311 314 313 310 310 308 307 306 305 305 305 307 312 313 310 309
216 227 231 238 241 240 236 243 252 261 264 264 270 270 263 254 251 253 225 239 256 271 280 286 294 302 305 307 309 308 305 304 306 306 306 307 309 308 307 312 311 310 310 309
223 232 231 230 234 237 242 247 250 252 252 259 249 242 259 253 244 255 261 270 279 285 289 291 296 299 301 303 302 302 300 301 305 307 308 307 309 308 310 311 311 309 308 308
234 234 230 229 234 236 235 234 230 235 239 240 210 239 243 260 265 271 280 284 286 285 289 292 294 296 297 298 299 300 300 305 308 307 307 308 308 310 309 310 309 309 309 309
235 237 237 237 235 228 219 221 225 225 226 233 242 248 258 260 272 280 284 285 288 289 291 292 293 294 295 296 297 300 302 306 306 307 307 308 309 308 308 309 309 309 310 311
237 238 233 232 228 228 230 222 224 226 233 245 254 266 267 274 279 286 290 291 290 292 293 292 292 292 294 297 299 298 300 303 306 305 307 308 307 307 309 310 310 311 312 312
228 221 223 221 226 229 224 228 229 236 244 254 269 276 284 283 286 289 291 293 293 294 293 293 295 295 296 298 300 300 298 302 305 307 308 308 308 309 310 310 312 314 315 318
227 222 222 225 230 230 233 235 239 247 255 266 272 278 286 286 289 289 291 292 293 293 295 296 296 294 296 298 300 300 300 300 305 307 308 309 309 310 309 313 316 317 319 322
227 223 230 234 238 240 244 249 255 262 269 273 276 283 282 286 288 291 293 293 293 294 296 296 296 295 297 299 300 301 300 301 306 308 309 309 309 310 313 314 316 319 322 322
224 228 238 242 248 253 256 264 265 266 271 276 280 283 286 286 289 292 293 293 294 296 296 296 295 295 297 299 301 301 302 305 307 308 308 308 310 314 314 314 317 321 323 322
236 244 251 254 255 262 271 265 268 271 272 276 280 283 285 288 290 292 293 294 295 295 295 295 296 298 300 301 302 303 305 306 307 309 307 309 312 315 316 316 319 322 323 325
246 252 257 261 262 268 272 271 271 273 274 276 279 281 284 286 290 292 293 294 295 296 297 298 299 300 301 303 305 305 307 309 309 306 307 309 311 313 316 319 321 323 325 328
260 261 265 270 272 276 276 276 276 276 278 277 279 282 285 287 289 290 293 295 297 298 298 300 301 302 304 305 304 306 306 307 306 307 307 307 308 312 319 320 322 324 328 329
274 275 277 277 280 284 283 285 285 283 285 287 287 287 288 289 290 293 295 297 297 299 301 303 304 304 304 304 304 306 308 310 308 309 307 307 306 314 321 323 323 327 330 327
288 288 288 287 290 289 291 291 288 290 289 291 292 292 293 294 296 296 298 300 301 301 302 303 303 304 305 305 303 302 303 307 309 308 305 304 305 315 322 323 325 330 328 324
287 289 288 290 289 288 288 289 291 291 292 291 293 294 297 298 298 301 302 301 301 302 303 304 304 306 306 304 306 304 301 305 309 303 300 300 303 313 321 324 327 328 325 323
284 286 287 287 286 286 288 291 291 291 292 294 294 294 296 297 300 301 301 302 302 302 303 304 305 308 304 303 296 299 299 294 294 295 297 300 302 318 322 325 327 326 322 323
286 287 287 287 286 288 289 288 290 292 292 291 293 295 296 298 300 301 302 303 303 304 304 306 308 306 306 305 297 288 291 293 293 297 295 298 312 320 323 326 325 323 323 323
286 285 287 289 287 288 289 289 289 289 290 292 294 295 298 299 300 301 302 303 304 303 302 305 306 303 295 298 289 285 289 292 295 294 297 307 320 323 326 325 324 322 323 322
Height
5777 5782 5785 5787 5788 5791 5794 5796 5797 5798 5799 5801 5802 5804 5804 5805 5806 5807 5808 5808 5808 5809 5809 5810 5810 5810 5809 5807 5805 5804 5803 5800 5796 5793 5790 5786 5782 5778 5772 5767 5764 5760 5755 5751
5778 5779 5784 5787 5789 5792 5793 5794 5797 5799 5800 5802 5804 5804 5805 5805 5805 5806 5807 5807 5807 5808 5808 5808 5807 5806 5804 5803 5801 5799 5797 5794 5790 5787 5783 5779 5775 5770 5766 5760 5754 5749 5744 5739
5779 5781 5783 5785 5789 5791 5793 5795 5797 5799 5800 5802 5803 5804 5805 5805 5805 5805 5805 5806 5806 5806 5805 5804 5802 5800 5798 5797 5795 5792 5790 5788 5785 5780 5775 5772 5768 5763 5757 5751 5746 5741 5736 5731
5779 5782 5784 5786 5788 5790 5792 5794 5795 5798 5800 5801 5802 5806 5803 5803 5803 5804 5803 5803 5802 5801 5800 5798 5797 5795 5793 5791 5790 5788 5785 5781 5778 5775 5771 5766 5760 5753 5747 5742 5736 5730 5726 5720
5780 5782 5784 5785 5787 5788 5790 5792 5794 5796 5798 5799 5800 5801 5799 5800 5800 5799 5799 5798 5797 5796 5794 5793 5791 5789 5787 5785 5783 5782 5779 5775 5772 5768 5761 5756 5750 5744 5738 5732 5727 5721 5714 5708
5778 5780 5781 5783 5784 5786 5788 5791 5793 5794 5795 5795 5796 5797 5798 5796 5795 5794 5793 5793 5792 5790 5789 5787 5785 5783 5781 5780 5777 5775 5772 5768 5763 5757 5753 5748 5742 5736 5730 5725 5718 5710 5702 5694
5777 5778 5779 5780 5781 5783 5786 5789 5790 5791 5790 5792 5793 5792 5793 5791 5789 5787 5788 5787 5786 5785 5783 5781 5780 5778 5776 5774 5771 5768 5764 5760 5755 5750 5745 5739 5733 5727 5721 5714 5706 5698 5690 5682
5775 5777 5777 5778 5780 5782 5784 5786 5787 5787 5788 5789 5787 5787 5787 5785 5783 5783 5783 5783 5781 5780 5779 5778 5776 5773 5770 5767 5764 5760 5756 5752 5747 5742 5737 5730 5724 5717 5709 5702 5694 5685 5676 5668
5772 5773 5775 5775 5776 5779 5780 5782 5784 5783 5783 5783 5783 5782 5780 5779 5779 5780 5780 5779 5778 5777 5775 5773 5771 5768 5765 5761 5757 5753 5749 5744 5739 5733 5727 5719 5712 5705 5697 5689 5680 5671 5663 5655
5769 5770 5772 5773 5774 5776 5777 5779 5781 5780 5780 5779 5780 5778 5778 5777 5777 5777 5777 5776 5775 5773 5771 5768 5765 5762 5758 5754 5750 5746 5741 5735 5729 5722 5716 5708 5700 5692 5684 5676 5668 5659 5651 5642
5766 5767 5769 5770 5771 5772 5774 5775 5776 5777 5777 5777 5777 5778 5776 5776 5775 5774 5774 5772 5770 5768 5766 5762 5759 5755 5751 5747 5742 5738 5732 5725 5718 5711 5704 5696 5689 5680 5672 5664 5655 5646 5636 5627
5761 5762 5764 5766 5767 5768 5770 5771 5772 5773 5775 5775 5775 5776 5774 5773 5772 5771 5770 5768 5765 5762 5759 5756 5752 5748 5743 5738 5734 5728 5720 5714 5707 5699 5691 5684 5676 5668 5660 5652 5642 5632 5623 5613
5758 5759 5761 5763 5765 5767 5768 5769 5769 5771 5771 5772 5772 5772 5770 5769 5768 5767 5765 5762 5759 5756 5752 5748 5744 5739 5733 5728 5722 5716 5709 5702 5695 5687 5680 5673 5665 5656 5648 5638 5629 5619 5609 5598
5753 5755 5757 5760 5761 5762 5764 5765 5766 5767 5768 5768 5768 5766 5764 5763 5763 5760 5757 5754 5751 5747 5743 5738 5734 5728 5722 5716 5710 5704 5697 5690 5683 5675 5668 5660 5652 5643 5634 5624 5615 5605 5594 5583
5750 5752 5754 5756 5757 5759 5761 5762 5763 5763 5763 5763 5763 5762 5758 5755 5755 5752 5749 5745 5742 5737 5733 5728 5723 5716 5710 5705 5699 5692 5685 5678 5671 5664 5656 5647 5639 5630 5621 5611 5601 5590 5579 5566
5747 5750 5751 5752 5754 5755 5756 5758 5759 5759 5758 5757 5755 5756 5751 5748 5746 5743 5740 5736 5732 5728 5723 5717 5711 5705 5699 5693 5687 5680 5673 5667 5659 5651 5642 5634 5625 5616 5606 5596 5586 5575 5562 5549
5744 5746 5748 5750 5750 5751 5752 5755 5754 5753 5753 5751 5748 5746 5743 5739 5736 5734 5730 5725 5721 5716 5711 5705 5699 5693 5687 5681 5674 5667 5660 5653 5645 5637 5628 5620 5612 5602 5592 5582 5571 5560 5547 5532
5741 5743 5743 5745 5746 5744 5749 5749 5747 5745 5745 5742 5739 5736 5733 5729 5725 5722 5717 5713 5709 5703 5698 5692 5687 5680 5674 5668 5662 5654 5647 5639 5632 5624 5615 5607 5598 5589 5578 5568 5557 5545 5530 5515
5737 5738 5738 5738 5739 5740 5740 5740 5741 5738 5737 5733 5730 5726 5722 5718 5714 5711 5705 5701 5696 5691 5686 5680 5674 5668 5661 5655 5649 5641 5634 5626 5618 5610 5602 5593 5584 5574 5564 5553 5541 5528 5513 5498
5733 5733 5734 5734 5733 5732 5734 5732 5731 5728 5726 5723 5721 5716 5712 5707 5703 5697 5693 5688 5683 5679 5673 5668 5662 5656 5649 5643 5636 5629 5621 5613 5605 5597 5588 5580 5571 5560 5550 5539 5526 5512 5498 5483
5728 5728 5728 5727 5726 5725 5724 5723 5721 5718 5717 5711 5708 5704 5700 5696 5691 5686 5681 5677 5672 5666 5661 5656 5650 5644 5637 5630 5622 5616 5608 5600 5592 5584 5575 5566 5556 5546 5536 5524 5510 5497 5483 5470
5723 5722 5722 5720 5718 5716 5715 5712 5710 5707 5703 5699 5694 5690 5686 5682 5678 5673 5669 5664 5659 5654 5649 5643 5637 5630 5623 5616 5611 5603 5595 5588 5579 5571 5561 5552 5541 5531 5521 5508 5495 5482 5470 5458
5717 5715 5714 5714 5711 5706 5703 5700 5697 5694 5691 5687 5683 5678 5674 5669 5665 5661 5656 5651 5647 5641 5635 5629 5623 5616 5610 5603 5595 5589 5582 5573 5564 5556 5546 5537 5527 5517 5507 5494 5481 5470 5458 5447
5708 5706 5705 5703 5701 5695 5691 5689 5686 5682 5679 5676 5671 5667 5662 5658 5654 5649 5645 5639 5633 5628 5621 5615 5610 5605 5599 5590 5583 5575 5566 5557 5548 5539 5531 5522 5512 5502 5492 5480 5470 5458 5447 5437
5699 5695 5692 5691 5688 5684 5682 5678 5674 5671 5667 5664 5660 5655 5651 5647 5642 5637 5632 5627 5621 5615 5609 5603 5596 5590 5583 5575 5568 5560 5551 5542 5534 5525 5516 5507 5497 5488 5478 5467 5457 5446 5436 5427
5687 5683 5680 5678 5676 5673 5671 5667 5664 5660 5657 5653 5649 5644 5640 5635 5631 5625 5619 5614 5608 5602 5596 5589 5583 5575 5566 5560 5551 5544 5536 5527 5519 5511 5501 5492 5482 5474 5465 5456 5446 5436 5426 5418